Location: Unspecified
(0.0000°N, 0.0000°E)
Time: 19:13:23
(UTC+00:00)

LightSail 2 - Pass Details

Date: 27 November 2019
Orbit: 696 x 730 km, 24.0° (Epoch: 08 December)

Event Time Altitude Azimuth Distance (km) Brightness Sun altitude
Exits shadow 03:55:18 68° 25° (NNE) 764 5.2 -26.0°
Maximum altitude 03:55:18 68° 26° (NNE) 764 5.2 -26.0°
Drops below altitude 10° 04:00:28 10° 108° (ESE) 2,195 8.7 -24.8°
Sets 04:02:56 0° 111° (ESE) 3,122 9.9 -24.3°
